Theta_e
326 327 328 327 328 327 326 327 327 327 326 325 326 325 324 324 324 325 325 325 324 324 323 322 323 324 322 322 323 325 325 325 325 328 329 328 328 327 325 325 324 324 327 328
327 327 327 327 327 326 326 327 328 327 326 325 325 325 325 324 325 326 326 327 325 324 323 323 324 324 323 322 321 325 325 324 327 329 329 329 329 327 327 326 326 326 327 328
327 326 327 327 327 327 327 328 328 328 327 325 325 326 325 324 325 325 325 326 326 325 325 324 324 324 323 322 322 324 325 326 329 331 330 331 330 328 329 327 326 327 328 328
325 325 327 327 328 327 328 327 327 327 327 326 325 327 325 324 323 324 326 327 326 325 324 325 325 324 322 322 322 324 326 328 329 330 328 330 331 329 329 331 327 326 328 327
327 327 327 328 327 326 327 326 326 326 326 327 326 327 325 323 324 324 324 327 327 326 324 325 325 323 321 322 322 325 327 327 330 330 328 328 330 329 331 329 328 326 328 328
326 326 327 327 325 325 325 326 326 326 326 329 326 326 323 322 323 324 326 329 327 325 324 324 324 322 320 323 322 324 327 326 328 330 328 327 330 330 329 329 328 326 329 328
325 326 326 326 326 325 325 327 328 330 329 328 326 324 324 323 323 325 327 330 328 325 324 324 325 322 321 323 322 324 325 325 325 328 327 326 327 329 327 327 329 327 327 329
326 326 327 326 325 326 326 327 328 329 329 328 325 326 323 324 328 329 330 330 328 325 324 325 325 322 321 322 323 323 323 324 324 326 326 326 326 326 328 327 329 327 326 327
326 326 325 326 325 325 326 327 326 327 327 328 326 325 325 325 326 330 330 328 327 325 324 325 324 322 320 322 324 325 324 323 323 324 326 325 325 326 328 331 328 326 329 328
325 328 325 326 324 324 326 325 327 327 330 331 326 326 325 324 324 332 332 329 327 325 325 325 325 322 321 321 324 326 326 322 324 323 323 322 324 325 327 330 327 325 324 327
325 327 327 325 327 325 325 327 326 327 327 329 330 327 326 324 327 330 334 331 328 326 325 325 325 322 321 322 323 326 327 323 322 323 323 323 322 324 326 326 327 327 327 327
324 325 328 326 325 324 325 325 327 328 329 327 327 327 326 326 328 333 336 332 328 326 325 325 325 322 321 322 323 325 326 323 319 320 322 323 322 324 325 326 327 328 328 328
325 325 326 325 328 327 325 325 325 327 328 329 329 328 327 328 332 333 336 332 328 327 325 325 325 323 321 322 322 323 326 323 318 317 320 322 323 323 325 325 326 326 327 329
328 325 326 328 328 326 327 324 325 327 329 329 328 327 328 328 330 332 335 332 329 327 325 326 326 324 321 321 321 322 324 323 318 318 318 319 323 322 325 325 326 325 325 327
328 329 324 323 323 325 325 325 324 327 327 328 326 326 326 326 328 330 333 333 330 327 326 326 326 325 321 321 321 322 323 322 319 319 319 318 320 321 323 324 325 326 325 324
326 326 324 324 322 323 323 324 325 326 326 326 326 326 326 326 326 329 333 333 331 329 326 326 326 325 322 321 322 322 323 322 320 320 320 319 317 320 321 324 325 326 325 324
327 325 326 325 322 322 325 323 325 326 326 326 326 326 325 325 328 329 333 332 331 330 328 327 327 326 322 321 321 322 323 323 321 321 321 320 317 317 321 322 322 325 325 325
327 326 326 325 324 327 323 323 322 324 324 325 325 325 325 325 328 329 330 333 332 332 330 328 327 326 323 321 322 322 323 323 322 321 321 321 317 316 318 320 322 325 326 326
325 329 326 327 330 324 325 325 323 323 324 324 325 325 324 325 327 329 330 331 332 333 332 330 326 326 325 322 322 322 322 322 321 321 321 321 318 316 318 319 322 324 325 326
320 326 327 328 333 328 324 325 324 325 326 325 326 327 327 326 330 328 330 331 332 333 332 330 327 326 326 323 322 322 322 322 321 321 321 320 319 317 318 318 321 323 323 323
322 323 327 330 333 327 327 325 326 328 327 327 328 328 329 328 330 328 329 332 332 333 331 330 328 327 327 324 323 323 322 322 321 320 320 321 320 317 319 320 320 321 321 319
321 323 324 326 328 327 326 327 329 327 334 330 331 331 331 331 332 331 332 333 333 333 331 329 329 328 327 325 324 323 322 322 322 321 320 321 321 318 319 321 321 320 319 319
322 320 322 322 324 330 327 327 331 329 329 331 330 333 332 333 332 332 333 333 333 333 332 329 329 328 327 326 325 324 323 322 321 321 320 321 322 320 318 321 321 319 319 317
318 319 321 322 322 323 324 327 328 331 332 330 332 333 334 333 333 333 332 332 332 332 333 329 329 329 328 327 326 325 324 323 321 322 321 322 323 321 318 319 320 318 318 318
316 316 319 322 322 321 322 322 324 329 331 331 331 331 332 332 332 332 332 331 331 331 331 330 329 329 328 327 326 326 325 323 322 322 323 323 323 322 320 318 318 318 318 318
316 315 316 317 319 322 323 323 323 325 331 330 330 330 331 331 331 330 331 331 331 331 330 330 329 329 328 327 327 326 325 324 323 324 323 324 322 323 321 319 317 317 318 317
Wind_Speed
21 16 23 25 21 17 11 11 13 10 7 10 14 13 14 16 14 12 13 14 16 15 13 14 13 9 5 2 3 5 6 8 10 10 10 8 8 8 7 8 8 8 7 5
17 23 24 22 19 17 14 16 16 8 10 7 13 16 16 16 12 10 12 14 15 15 14 15 14 10 6 1 1 4 5 7 8 8 7 6 6 4 6 9 8 4 5 4
24 23 23 21 18 19 18 18 14 11 10 12 12 17 8 8 8 9 10 11 13 16 16 15 15 12 7 4 2 1 4 5 7 8 9 7 2 1 7 15 11 9 3 3
23 23 24 19 24 20 20 15 14 13 12 11 2 13 11 9 9 9 8 10 12 15 16 15 15 13 10 6 4 1 3 4 6 9 9 9 6 5 5 7 13 15 8 7
25 24 24 25 24 21 18 13 13 15 12 11 15 7 8 5 8 6 7 7 10 14 17 16 15 14 11 9 6 2 1 3 5 7 9 10 9 8 5 7 9 13 12 9
25 17 20 22 17 16 16 8 10 8 11 11 15 9 9 3 4 9 3 3 7 14 17 15 17 15 13 11 7 4 2 3 3 6 8 9 9 8 6 5 4 11 11 11
25 23 22 16 20 13 18 14 10 10 10 11 2 6 10 9 8 8 9 8 8 14 17 17 16 15 14 13 9 6 3 4 4 5 7 8 9 8 9 9 10 16 15 13
23 24 26 18 23 16 21 18 11 11 11 11 7 6 4 0 3 5 5 4 10 16 17 17 16 16 15 14 12 7 5 5 5 6 6 7 10 10 8 10 13 17 12 12
23 24 28 24 21 22 16 18 18 16 14 8 11 5 11 5 4 4 0 4 12 16 17 17 17 16 16 15 13 10 6 5 6 5 5 6 9 10 13 11 13 12 10 9
11 21 16 23 21 23 20 16 10 10 14 14 8 6 7 6 3 4 5 8 13 16 18 16 15 17 16 15 13 11 8 5 7 5 5 6 8 8 7 9 10 11 10 9
16 15 21 17 22 22 13 16 14 13 13 12 10 6 5 2 1 3 5 11 15 17 18 17 15 19 18 16 14 11 10 7 8 6 6 6 7 8 8 7 8 9 8 9
31 13 14 24 20 23 23 22 21 13 16 10 10 9 9 6 4 4 3 10 15 17 18 17 17 20 19 18 15 13 11 9 9 9 7 7 7 7 8 9 10 11 11 10
25 15 15 15 10 14 23 21 21 20 16 17 11 11 7 6 7 6 5 12 14 18 19 17 16 16 19 18 17 15 13 11 10 11 10 8 7 8 7 8 10 13 13 12
23 18 27 22 21 18 21 21 23 21 16 16 16 16 9 9 10 8 8 10 14 18 19 18 16 16 20 19 17 16 14 14 13 12 11 11 9 10 9 8 9 11 13 15
20 25 24 26 20 22 20 22 24 24 23 20 16 16 12 10 11 11 10 11 14 17 20 19 18 17 21 21 19 17 16 16 15 14 13 12 11 11 11 10 8 10 11 13
21 17 22 21 26 22 21 25 24 24 25 22 20 19 12 12 11 11 10 14 16 19 22 21 19 18 20 23 22 20 18 18 17 15 14 13 13 13 12 11 10 10 11 12
19 16 14 22 22 21 23 27 25 23 24 20 21 19 17 13 11 13 14 15 16 18 20 22 22 20 24 25 24 23 20 19 18 16 15 14 14 15 14 13 12 11 11 11
17 20 13 12 17 21 19 21 25 25 22 21 19 18 18 16 14 14 14 16 15 15 18 20 18 23 26 27 26 23 22 22 20 18 17 15 15 16 17 16 14 12 11 10
9 17 12 11 15 9 13 12 23 23 26 23 20 20 19 15 11 12 13 15 16 16 17 19 28 29 27 28 28 26 24 23 22 20 19 18 17 17 18 17 16 14 13 12
6 8 13 12 19 26 13 14 11 15 17 18 23 21 20 15 10 13 17 17 17 14 16 19 26 29 29 29 29 29 27 25 24 23 21 20 18 18 19 19 18 16 14 13
11 11 16 12 14 10 4 17 15 18 7 15 17 20 19 14 17 11 4 15 17 15 16 20 26 30 33 34 33 31 29 28 26 23 22 21 20 19 19 19 18 17 16 14
15 11 11 14 16 13 9 8 18 9 5 6 12 15 15 19 19 11 7 12 17 16 15 21 23 25 30 33 34 31 31 30 27 25 24 23 21 20 20 20 19 18 17 15
15 15 13 14 12 7 12 10 14 8 12 11 11 10 15 16 15 11 11 11 13 12 14 20 22 22 25 32 34 33 33 30 29 27 26 25 23 22 21 21 20 20 19 18
14 7 10 9 15 7 10 9 8 11 11 6 9 9 10 12 11 13 11 11 12 12 12 16 21 22 24 30 36 37 31 32 31 29 27 26 26 24 22 21 21 21 21 20
15 15 15 13 16 12 10 18 15 13 11 9 9 9 10 11 11 12 12 12 11 11 13 15 20 23 25 27 30 31 33 33 32 31 30 28 27 28 25 24 24 24 22 22
15 21 16 14 11 16 16 12 20 16 14 13 13 9 9 10 10 9 9 9 9 9 12 14 18 20 22 23 26 29 34 36 34 31 31 31 29 29 27 26 24 24 21 25
Wind_Direction
188 202 206 207 217 235 269 251 249 252 271 268 279 289 287 284 270 255 250 225 219 212 198 190 191 192 198 261 302 298 325 336 348 354 352 343 4 356 346 335 312 292 256 234
187 215 209 217 211 223 230 240 245 248 268 273 286 288 293 283 270 264 243 224 216 204 192 188 188 191 192 211 293 295 329 342 357 354 347 349 359 8 349 350 348 30 166 200
204 212 214 213 209 213 226 239 242 258 300 262 261 276 264 273 242 246 244 234 210 203 193 187 186 188 183 184 193 329 354 352 19 21 21 25 85 59 45 51 44 37 80 167
215 217 201 202 213 213 227 219 258 261 265 282 3 293 282 274 275 256 239 217 210 198 193 184 182 182 181 169 170 139 29 25 39 29 29 18 23 49 33 53 64 54 69 116
210 208 192 209 214 208 238 233 233 257 267 283 262 254 288 242 279 292 279 196 199 192 189 181 179 176 175 162 170 170 70 49 49 41 28 14 26 43 34 71 74 61 57 95
225 210 203 214 216 217 225 206 227 245 256 248 255 248 277 273 312 318 318 117 185 181 182 175 175 170 170 163 166 169 124 78 67 46 34 31 25 40 52 32 55 49 67 75
214 202 208 211 207 205 219 214 225 221 220 250 154 246 258 307 312 322 306 316 170 175 175 172 172 174 171 167 169 174 149 99 74 59 46 38 37 33 29 36 66 83 74 58
202 207 191 200 208 192 203 208 230 225 244 251 154 252 223 317 313 289 317 324 156 171 172 173 173 176 173 170 169 171 147 130 103 81 55 47 37 39 35 64 84 86 74 58
197 209 200 204 209 214 190 219 226 255 267 272 273 194 256 254 250 212 203 138 162 168 171 172 173 177 173 172 173 176 154 138 119 97 79 64 61 51 59 78 88 79 71 67
196 208 189 198 207 211 218 202 201 223 241 238 237 234 268 227 346 99 170 168 168 168 171 172 174 177 175 172 172 181 174 151 135 118 98 83 78 70 68 73 78 68 72 72
185 208 187 189 204 200 190 220 215 250 226 235 243 254 107 273 203 338 167 171 173 176 177 174 175 177 177 173 174 182 177 164 148 137 120 101 95 79 86 77 67 74 94 114
201 198 183 209 198 215 201 214 207 222 214 244 274 258 146 249 252 281 193 171 178 178 178 178 174 176 178 178 178 181 177 171 154 149 141 117 111 103 93 88 87 92 103 114
191 210 208 193 192 216 225 212 220 219 245 251 234 241 161 193 222 222 194 174 176 181 175 180 177 178 181 180 183 185 181 173 159 153 151 139 128 127 106 98 98 92 102 111
195 200 209 210 199 191 207 223 217 218 223 234 239 252 194 208 223 197 192 182 180 183 177 181 182 180 182 182 185 187 183 171 164 157 154 151 148 142 130 117 109 105 99 108
192 210 212 226 217 202 210 214 218 218 224 234 235 241 234 236 217 229 192 186 180 185 184 186 185 182 182 180 183 186 183 175 170 163 156 157 158 149 150 138 130 119 117 114
192 216 221 218 222 221 214 218 215 218 224 228 242 251 242 235 255 207 198 189 189 190 192 190 187 182 183 181 182 182 184 180 177 171 164 161 163 160 159 157 146 138 133 128
188 206 206 221 217 225 232 219 216 219 226 228 233 238 243 235 232 226 205 200 198 193 195 191 189 184 182 183 184 182 183 181 183 180 171 168 167 169 166 167 163 155 150 140
196 197 199 207 199 209 242 225 222 225 228 225 241 245 236 236 229 229 218 205 201 196 196 197 189 187 183 182 183 183 183 183 184 187 179 176 173 174 173 172 170 166 162 157
218 190 195 199 201 217 194 205 210 216 231 230 228 226 234 233 230 248 227 203 209 201 201 195 192 187 181 182 181 182 186 186 187 188 185 182 179 175 178 178 177 175 172 168
170 236 202 204 195 221 209 164 198 211 231 219 218 222 227 228 217 235 199 210 209 204 197 191 188 183 180 182 181 183 187 190 192 188 188 185 182 179 180 182 182 182 182 182
180 188 198 182 214 224 187 191 181 198 214 199 213 220 221 219 221 243 227 190 200 190 191 192 182 184 185 179 181 187 188 194 195 189 185 184 184 182 180 179 181 182 185 187
191 187 197 216 210 221 172 206 196 204 142 198 207 221 212 217 222 215 199 189 186 186 194 193 188 185 183 182 182 188 193 193 191 190 186 184 184 183 180 180 181 183 184 186
215 208 208 203 205 78 181 206 206 215 222 220 245 220 210 215 216 200 196 186 191 186 191 193 191 183 183 186 189 191 193 188 190 190 187 184 185 185 183 182 181 181 183 186
222 250 240 249 225 222 243 240 246 237 242 263 233 205 204 216 211 197 202 194 197 184 185 194 191 188 187 192 195 201 186 186 187 190 190 186 184 187 186 188 187 189 187 191
232 221 233 247 246 257 238 244 253 242 251 233 238 220 204 199 198 194 184 180 193 195 189 200 198 192 192 195 202 198 191 187 188 189 190 190 189 187 188 193 192 195 196 195
239 230 230 232 241 239 244 229 246 246 234 230 238 212 203 195 183 184 176 172 182 189 191 197 202 194 193 196 201 199 195 191 187 188 191 193 192 189 192 193 195 202 203 204